Location: Kershaw
(34.5481°N, 80.5823°W)
Time: 14:51:36
(UTC+00:00)

Vanguard 1 Rocket - Pass Details

Date: 09 October 2022
Orbit: 650 x 4225 km, 34.3° (Epoch: 08 December)

Event Time Altitude Azimuth Distance (km) Brightness Sun altitude
Rises 05:27:38 0° 286° (WNW) 6,443 11.8 -61.4°
Enters shadow 05:31:08 - 283° (WNW) 5,385 11.3 -61.3°
Reaches altitude 10° 05:33:01 10° 280° (W) 4,804 - -61.2°
Maximum altitude 05:43:34 38° 219° (SW) 2,005 - -60.7°
Drops below altitude 10° 05:49:34 10° 152° (SSE) 2,727 - -60.3°
Sets 05:51:48 0° 143° (SE) 3,434 - -60.1°
